Time,TemperatureF,DewpointF,PressureIn,WindDirection,WindDirectionDegrees,WindSpeedMPH,WindSpeedGustMPH,Humidity,HourlyPrecipIn,Conditions,Clouds,dailyrainin,SoftwareType,DateUTC
2013-01-13 00:05:00,61.2,60.9,30.14,South,188,0.0,1.0,99,0.00,RA,,0.00,WeatherDisplay:10.37,2013-01-13 05:05:00,
2013-01-13 00:10:00,61.0,60.7,30.13,South,188,0.0,0.0,99,0.00,CLR,,0.00,WeatherDisplay:10.37,2013-01-13 05:10:00,
2013-01-13 00:15:00,60.8,60.5,30.13,South,188,0.0,0.0,99,0.00,CLR,,0.00,WeatherDisplay:10.37,2013-01-13 05:15:00,
2013-01-13 00:20:00,60.6,60.3,30.13,South,188,0.0,1.0,99,0.00,CLR,,0.00,WeatherDisplay:10.37,2013-01-13 05:20:00,
2013-01-13 00:30:00,60.8,60.5,30.13,South,188,0.0,1.0,99,0.00,CLR,,0.00,WeatherDisplay:10.37,2013-01-13 05:30:00,
2013-01-13 00:40:00,60.8,60.5,30.13,South,188,0.0,2.0,99,0.00,CLR,,0.00,WeatherDisplay:10.37,2013-01-13 05:40:00,
2013-01-13 00:45:00,60.8,60.5,30.13,South,188,0.0,1.0,99,0.00,CLR,,0.00,WeatherDisplay:10.37,2013-01-13 05:45:00,
2013-01-13 00:50:00,60.8,60.5,30.13,South,188,0.0,2.0,99,0.00,CLR,,0.00,WeatherDisplay:10.37,2013-01-13 05:50:00,
2013-01-13 00:55:00,60.6,60.3,30.13,South,188,0.0,1.0,99,0.00,CLR,,0.00,WeatherDisplay:10.37,2013-01-13 05:55:00,
2013-01-13 01:00:00,60.4,60.2,30.13,South,188,0.0,2.0,99,0.00,CLR,,0.00,WeatherDisplay:10.37,2013-01-13 06:00:00,
2013-01-13 01:10:00,60.3,60.0,30.13,South,188,0.0,2.0,99,0.00,CLR,,0.00,WeatherDisplay:10.37,2013-01-13 06:10:00,
2013-01-13 01:15:00,60.3,60.0,30.12,South,188,0.0,2.0,99,0.00,CLR,,0.00,WeatherDisplay:10.37,2013-01-13 06:15:00,
2013-01-13 01:20:00,60.3,60.0,30.13,South,188,0.0,1.0,99,0.00,CLR,,0.00,WeatherDisplay:10.37,2013-01-13 06:20:00,
2013-01-13 01:25:00,60.3,60.0,30.13,South,187,0.0,2.0,99,0.00,CLR,,0.00,WeatherDisplay:10.37,2013-01-13 06:25:00,
2013-01-13 01:30:00,60.4,60.2,30.13,South,187,1.0,2.0,99,0.00,CLR,,0.00,WeatherDisplay:10.37,2013-01-13 06:30:00,
2013-01-13 01:35:00,60.6,60.3,30.12,SSW,194,1.0,2.0,99,0.00,CLR,,0.00,WeatherDisplay:10.37,2013-01-13 06:35:00,
2013-01-13 01:40:00,60.8,60.5,30.13,SSW,195,1.0,2.0,99,0.00,CLR,,0.00,WeatherDisplay:10.37,2013-01-13 06:40:00,
2013-01-13 01:45:00,60.8,60.5,30.12,SSW,213,0.0,2.0,99,0.00,CLR,,0.00,WeatherDisplay:10.37,2013-01-13 06:45:00,
2013-01-13 01:50:00,60.8,60.5,30.12,SSW,205,1.0,2.0,99,0.00,CLR,,0.00,WeatherDisplay:10.37,2013-01-13 06:50:00,
2013-01-13 01:55:00,60.8,60.5,30.13,South,188,0.0,2.0,99,0.00,CLR,,0.00,WeatherDisplay:10.37,2013-01-13 06:55:00,
2013-01-13 02:00:00,60.6,60.4,30.13,South,188,0.0,2.0,99,0.00,CLR,,0.00,WeatherDisplay:10.37,2013-01-13 07:00:00,
2013-01-13 02:05:00,60.6,60.3,30.13,South,188,0.0,0.0,99,0.00,CLR,,0.00,WeatherDisplay:10.37,2013-01-13 07:05:00,
2013-01-13 02:10:00,60.6,60.3,30.13,South,188,0.0,1.0,99,0.00,CLR,,0.00,WeatherDisplay:10.37,2013-01-13 07:10:00,
2013-01-13 02:15:00,60.4,60.2,30.13,South,188,0.0,2.0,99,0.00,CLR,,0.00,WeatherDisplay:10.37,2013-01-13 07:15:00,
2013-01-13 02:20:00,60.4,60.2,30.13,South,188,0.0,1.0,99,0.00,CLR,,0.00,WeatherDisplay:10.37,2013-01-13 07:20:00,
2013-01-13 02:25:00,60.3,60.0,30.13,South,188,0.0,0.0,99,0.00,CLR,,0.00,WeatherDisplay:10.37,2013-01-13 07:25:00,
2013-01-13 02:30:00,60.1,59.8,30.13,South,188,0.0,0.0,99,0.00,CLR,,0.00,WeatherDisplay:10.37,2013-01-13 07:30:00,
2013-01-13 02:35:00,60.1,59.8,30.13,SW,226,0.0,0.0,99,0.00,CLR,,0.00,WeatherDisplay:10.37,2013-01-13 07:35:00,
2013-01-13 02:45:00,60.1,59.8,30.14,SW,233,0.0,1.0,99,0.00,CLR,,0.00,WeatherDisplay:10.37,2013-01-13 07:45:00,
2013-01-13 02:50:00,60.2,59.9,30.14,SW,233,0.0,0.0,99,0.00,CLR,,0.00,WeatherDisplay:10.37,2013-01-13 07:50:00,
2013-01-13 02:55:00,60.1,59.8,30.14,SW,233,0.0,0.0,99,0.00,CLR,,0.00,WeatherDisplay:10.37,2013-01-13 07:55:00,
2013-01-13 03:00:00,60.1,59.8,30.14,SW,233,0.0,0.0,99,0.00,CLR,,0.00,WeatherDisplay:10.37,2013-01-13 08:00:00,
2013-01-13 03:05:00,59.9,59.6,30.14,SW,233,0.0,0.0,99,0.00,CLR,,0.00,WeatherDisplay:10.37,2013-01-13 08:05:00,
2013-01-13 03:10:00,59.9,59.6,30.14,SW,221,0.0,1.0,99,0.00,CLR,,0.00,WeatherDisplay:10.37,2013-01-13 08:10:00,
2013-01-13 03:15:00,59.9,59.6,30.13,SSW,197,0.0,1.0,99,0.00,CLR,,0.00,WeatherDisplay:10.37,2013-01-13 08:15:00,
2013-01-13 03:20:00,59.9,59.6,30.13,South,188,0.0,1.0,99,0.00,CLR,,0.00,WeatherDisplay:10.37,2013-01-13 08:20:00,
2013-01-13 03:25:00,59.9,59.6,30.13,South,188,0.0,1.0,99,0.00,CLR,,0.00,WeatherDisplay:10.37,2013-01-13 08:25:00,
2013-01-13 03:30:00,59.9,59.6,30.12,South,188,0.0,1.0,99,0.00,CLR,,0.00,WeatherDisplay:10.37,2013-01-13 08:30:00,
2013-01-13 03:35:00,59.9,59.6,30.13,South,188,0.0,1.0,99,0.00,CLR,,0.00,WeatherDisplay:10.37,2013-01-13 08:35:00,
2013-01-13 03:40:00,59.7,59.4,30.12,South,188,0.0,0.0,99,0.00,CLR,,0.00,WeatherDisplay:10.37,2013-01-13 08:40:00,
2013-01-13 03:45:00,59.5,59.3,30.12,South,188,0.0,0.0,99,0.00,CLR,,0.00,WeatherDisplay:10.37,2013-01-13 08:45:00,
2013-01-13 03:50:00,59.4,59.1,30.13,South,188,0.0,1.0,99,0.00,CLR,,0.00,WeatherDisplay:10.37,2013-01-13 08:50:00,
2013-01-13 03:55:00,59.2,58.9,30.12,South,188,0.0,2.0,99,0.00,CLR,,0.00,WeatherDisplay:10.37,2013-01-13 08:55:00,
2013-01-13 04:00:00,59.2,58.9,30.12,South,188,0.0,2.0,99,0.00,CLR,,0.00,WeatherDisplay:10.37,2013-01-13 09:00:00,
2013-01-13 04:05:00,59.2,58.9,30.12,South,188,0.0,1.0,99,0.00,CLR,,0.00,WeatherDisplay:10.37,2013-01-13 09:05:00,
2013-01-13 04:10:00,59.4,59.1,30.12,South,188,0.0,1.0,99,0.00,CLR,,0.00,WeatherDisplay:10.37,2013-01-13 09:10:00,
2013-01-13 04:15:00,59.4,59.1,30.12,SSW,208,0.0,2.0,99,0.00,CLR,,0.00,WeatherDisplay:10.37,2013-01-13 09:15:00,
2013-01-13 04:20:00,59.2,58.9,30.11,SW,231,0.0,1.0,99,0.00,CLR,,0.00,WeatherDisplay:10.37,2013-01-13 09:20:00,
2013-01-13 04:25:00,59.2,58.9,30.12,SSW,207,0.0,2.0,99,0.00,CLR,,0.00,WeatherDisplay:10.37,2013-01-13 09:25:00,
2013-01-13 04:30:00,59.2,58.9,30.11,South,188,0.0,0.0,99,0.00,CLR,,0.00,WeatherDisplay:10.37,2013-01-13 09:30:00,
2013-01-13 04:35:00,59.4,59.1,30.12,South,188,0.0,0.0,99,0.00,CLR,,0.00,WeatherDisplay:10.37,2013-01-13 09:35:00,
2013-01-13 04:40:00,59.2,58.9,30.12,South,188,0.0,0.0,99,0.00,CLR,,0.00,WeatherDisplay:10.37,2013-01-13 09:40:00,
2013-01-13 04:45:00,59.1,58.9,30.12,South,188,0.0,0.0,99,0.00,CLR,,0.00,WeatherDisplay:10.37,2013-01-13 09:45:00,
2013-01-13 04:50:00,59.0,58.7,30.11,South,188,0.0,0.0,99,0.00,CLR,,0.00,WeatherDisplay:10.37,2013-01-13 09:50:00,
2013-01-13 04:55:00,58.9,58.6,30.11,South,188,0.0,2.0,99,0.00,CLR,,0.00,WeatherDisplay:10.37,2013-01-13 09:55:00,
2013-01-13 05:00:00,59.2,58.9,30.11,SSW,194,0.0,3.0,99,0.00,CLR,,0.00,WeatherDisplay:10.37,2013-01-13 10:00:00,
2013-01-13 05:05:00,59.2,58.9,30.11,SSW,192,0.0,1.0,99,0.00,CLR,,0.00,WeatherDisplay:10.37,2013-01-13 10:05:00,
2013-01-13 05:10:00,59.5,59.3,30.11,South,188,0.0,1.0,99,0.00,CLR,,0.00,WeatherDisplay:10.37,2013-01-13 10:10:00,
2013-01-13 05:15:00,59.5,59.3,30.11,South,188,0.0,0.0,99,0.00,CLR,,0.00,WeatherDisplay:10.37,2013-01-13 10:15:00,
2013-01-13 05:20:00,59.4,59.1,30.11,South,188,0.0,0.0,99,0.00,CLR,,0.00,WeatherDisplay:10.37,2013-01-13 10:20:00,
2013-01-13 05:25:00,59.3,59.1,30.11,South,188,0.0,0.0,99,0.00,CLR,,0.00,WeatherDisplay:10.37,2013-01-13 10:25:00,
2013-01-13 05:30:00,59.2,58.9,30.12,South,188,0.0,0.0,99,0.00,CLR,,0.00,WeatherDisplay:10.37,2013-01-13 10:30:00,
2013-01-13 05:35:00,59.1,58.8,30.12,South,188,0.0,0.0,99,0.00,CLR,,0.00,WeatherDisplay:10.37,2013-01-13 10:35:00,
2013-01-13 05:45:00,58.6,58.4,30.12,South,188,0.0,0.0,99,0.00,CLR,,0.00,WeatherDisplay:10.37,2013-01-13 10:45:00,
2013-01-13 05:50:00,58.6,58.4,30.12,South,188,0.0,0.0,99,0.00,CLR,,0.00,WeatherDisplay:10.37,2013-01-13 10:50:00,
2013-01-13 05:55:00,58.6,58.4,30.12,South,188,0.0,0.0,99,0.00,CLR,,0.00,WeatherDisplay:10.37,2013-01-13 10:55:00,
2013-01-13 06:00:00,58.6,58.4,30.12,South,188,0.0,0.0,99,0.00,CLR,,0.00,WeatherDisplay:10.37,2013-01-13 11:00:00,
2013-01-13 06:05:00,58.6,58.4,30.13,South,188,0.0,0.0,99,0.00,CLR,,0.00,WeatherDisplay:10.37,2013-01-13 11:05:00,
2013-01-13 06:10:00,58.5,58.2,30.13,South,188,0.0,0.0,99,0.00,CLR,,0.00,WeatherDisplay:10.37,2013-01-13 11:10:00,
2013-01-13 06:15:00,58.5,58.2,30.13,South,188,0.0,1.0,99,0.00,CLR,,0.00,WeatherDisplay:10.37,2013-01-13 11:15:00,
2013-01-13 06:20:00,58.5,58.2,30.13,South,188,0.0,2.0,99,0.00,CLR,,0.00,WeatherDisplay:10.37,2013-01-13 11:20:00,
2013-01-13 06:25:00,58.5,58.2,30.13,South,188,0.0,1.0,99,0.00,CLR,,0.00,WeatherDisplay:10.37,2013-01-13 11:25:00,
2013-01-13 06:30:00,58.5,58.2,30.13,South,188,0.0,0.0,99,0.00,CLR,,0.00,WeatherDisplay:10.37,2013-01-13 11:30:00,
2013-01-13 06:35:00,58.3,58.0,30.14,South,188,0.0,0.0,99,0.00,CLR,,0.00,WeatherDisplay:10.37,2013-01-13 11:35:00,
2013-01-13 06:40:00,58.1,57.9,30.13,South,188,0.0,0.0,99,0.00,CLR,,0.00,WeatherDisplay:10.37,2013-01-13 11:40:00,
2013-01-13 06:45:00,57.9,57.6,30.14,South,188,0.0,0.0,99,0.00,CLR,,0.00,WeatherDisplay:10.37,2013-01-13 11:45:00,
2013-01-13 06:50:00,57.9,57.6,30.14,South,188,0.0,1.0,99,0.00,CLR,,0.00,WeatherDisplay:10.37,2013-01-13 11:50:00,
2013-01-13 06:55:00,57.8,57.5,30.14,South,188,0.0,1.0,99,0.00,CLR,,0.00,WeatherDisplay:10.37,2013-01-13 11:55:00,
2013-01-13 07:00:00,57.9,57.6,30.14,South,188,0.0,0.0,99,0.00,CLR,,0.00,WeatherDisplay:10.37,2013-01-13 12:00:00,
2013-01-13 07:05:00,57.9,57.6,30.14,South,188,0.0,0.0,99,0.00,CLR,,0.00,WeatherDisplay:10.37,2013-01-13 12:05:00,
2013-01-13 07:10:00,57.7,57.5,30.14,South,188,0.0,0.0,99,0.00,CLR,,0.00,WeatherDisplay:10.37,2013-01-13 12:10:00,
2013-01-13 07:15:00,57.7,57.5,30.15,South,188,0.0,0.0,99,0.00,CLR,,0.00,WeatherDisplay:10.37,2013-01-13 12:15:00,
2013-01-13 07:20:00,57.7,57.5,30.15,South,188,0.0,0.0,99,0.00,CLR,,0.00,WeatherDisplay:10.37,2013-01-13 12:20:00,
2013-01-13 07:25:00,57.7,57.5,30.15,South,188,0.0,0.0,99,0.00,CLR,,0.00,WeatherDisplay:10.37,2013-01-13 12:25:00,
2013-01-13 07:30:00,57.7,57.5,30.16,South,188,0.0,0.0,99,0.00,CLR,,0.00,WeatherDisplay:10.37,2013-01-13 12:30:00,
2013-01-13 07:35:00,57.7,57.5,30.16,South,188,0.0,0.0,99,0.00,CLR,,0.00,WeatherDisplay:10.37,2013-01-13 12:35:00,
2013-01-13 07:40:00,57.6,57.3,30.16,South,188,0.0,2.0,99,0.00,CLR,,0.00,WeatherDisplay:10.37,2013-01-13 12:40:00,
2013-01-13 07:45:00,57.4,57.1,30.15,South,188,0.0,2.0,99,0.00,CLR,,0.00,WeatherDisplay:10.37,2013-01-13 12:45:00,
2013-01-13 07:50:00,57.4,57.2,30.15,South,188,0.0,2.0,99,0.00,CLR,,0.00,WeatherDisplay:10.37,2013-01-13 12:50:00,
2013-01-13 07:55:00,57.7,57.5,30.15,South,188,1.0,2.0,99,0.00,CLR,,0.00,WeatherDisplay:10.37,2013-01-13 12:55:00,
2013-01-13 08:00:00,58.0,57.8,30.16,South,188,0.0,2.0,99,0.00,CLR,,0.00,WeatherDisplay:10.37,2013-01-13 13:00:00,
2013-01-13 08:05:00,58.1,57.8,30.16,South,188,0.0,0.0,99,0.00,CLR,,0.00,WeatherDisplay:10.37,2013-01-13 13:05:00,
2013-01-13 08:10:00,58.3,58.0,30.16,South,188,0.0,0.0,99,0.00,CLR,,0.00,WeatherDisplay:10.37,2013-01-13 13:10:00,
2013-01-13 08:15:00,58.6,58.3,30.16,South,188,0.0,1.0,99,0.00,CLR,,0.00,WeatherDisplay:10.37,2013-01-13 13:15:00,
2013-01-13 08:20:00,58.8,58.5,30.16,South,188,0.0,0.0,99,0.00,CLR,,0.00,WeatherDisplay:10.37,2013-01-13 13:20:00,
2013-01-13 08:25:00,59.2,58.9,30.17,South,188,0.0,0.0,99,0.00,CLR,,0.00,WeatherDisplay:10.37,2013-01-13 13:25:00,
2013-01-13 08:30:00,59.6,59.3,30.17,South,188,0.0,1.0,99,0.00,CLR,,0.00,WeatherDisplay:10.37,2013-01-13 13:30:00,
2013-01-13 08:35:00,60.3,60.0,30.17,South,188,0.0,1.0,99,0.00,CLR,,0.00,WeatherDisplay:10.37,2013-01-13 13:35:00,
2013-01-13 08:40:00,61.3,61.0,30.17,South,188,0.0,2.0,99,0.00,CLR,,0.00,WeatherDisplay:10.37,2013-01-13 13:40:00,
2013-01-13 08:45:00,62.4,62.1,30.17,South,189,1.0,2.0,99,0.00,CLR,,0.00,WeatherDisplay:10.37,2013-01-13 13:45:00,
2013-01-13 08:50:00,63.1,62.8,30.17,SSW,203,0.0,2.0,99,0.00,CLR,,0.00,WeatherDisplay:10.37,2013-01-13 13:50:00,
2013-01-13 08:55:00,63.9,63.6,30.17,SW,215,0.0,3.0,99,0.00,CLR,,0.00,WeatherDisplay:10.37,2013-01-13 13:55:00,
2013-01-13 09:00:00,64.7,64.4,30.18,SSW,208,0.0,2.0,99,0.00,CLR,,0.00,WeatherDisplay:10.37,2013-01-13 14:00:00,
2013-01-13 09:05:00,65.5,65.3,30.18,SW,218,0.0,2.0,99,0.00,CLR,,0.00,WeatherDisplay:10.37,2013-01-13 14:05:00,
2013-01-13 09:10:00,66.4,66.1,30.18,SSW,198,1.0,4.0,99,0.00,CLR,,0.00,WeatherDisplay:10.37,2013-01-13 14:10:00,
2013-01-13 09:15:00,67.4,67.1,30.18,SSW,196,0.0,3.0,99,0.00,CLR,,0.00,WeatherDisplay:10.37,2013-01-13 14:15:00,
2013-01-13 09:20:00,68.3,68.0,30.18,SSW,211,0.0,1.0,99,0.00,CLR,,0.00,WeatherDisplay:10.37,2013-01-13 14:20:00,
2013-01-13 09:25:00,69.1,68.8,30.19,SW,219,0.0,4.0,99,0.00,CLR,,0.00,WeatherDisplay:10.37,2013-01-13 14:25:00,
2013-01-13 09:30:00,69.6,69.3,30.19,West,278,0.0,1.0,99,0.00,CLR,,0.00,WeatherDisplay:10.37,2013-01-13 14:30:00,
2013-01-13 09:40:00,71.1,70.8,30.19,WNW,291,0.0,1.0,99,0.00,CLR,,0.00,WeatherDisplay:10.37,2013-01-13 14:40:00,
2013-01-13 09:45:00,71.8,71.5,30.19,WNW,284,0.0,3.0,99,0.00,CLR,,0.00,WeatherDisplay:10.37,2013-01-13 14:45:00,
2013-01-13 09:50:00,71.8,71.5,30.19,West,263,1.0,2.0,99,0.00,CLR,,0.00,WeatherDisplay:10.37,2013-01-13 14:50:00,
2013-01-13 09:55:00,71.7,71.4,30.19,WSW,253,0.0,2.0,99,0.00,CLR,,0.00,WeatherDisplay:10.37,2013-01-13 14:55:00,
2013-01-13 10:00:00,72.0,71.7,30.19,WSW,252,0.0,3.0,99,0.00,CLR,,0.00,WeatherDisplay:10.37,2013-01-13 15:00:00,
2013-01-13 10:05:00,72.5,72.2,30.19,SSW,202,1.0,4.0,99,0.00,CLR,,0.00,WeatherDisplay:10.37,2013-01-13 15:05:00,
2013-01-13 10:10:00,72.7,72.4,30.18,SSW,208,1.0,5.0,99,0.00,CLR,,0.00,WeatherDisplay:10.37,2013-01-13 15:10:00,
2013-01-13 10:15:00,73.0,72.7,30.19,SW,226,0.0,2.0,99,0.21,RA,,0.21,WeatherDisplay:10.37,2013-01-13 15:15:00,
2013-01-13 10:20:00,73.8,73.5,30.18,WSW,248,0.0,2.0,99,0.00,RA,,0.21,WeatherDisplay:10.37,2013-01-13 15:20:00,
2013-01-13 10:25:00,74.3,74.0,30.18,West,272,0.0,2.0,99,0.00,CLR,,0.21,WeatherDisplay:10.37,2013-01-13 15:25:00,
2013-01-13 10:30:00,75.0,74.7,30.18,West,275,0.0,2.0,99,0.00,CLR,,0.21,WeatherDisplay:10.37,2013-01-13 15:30:00,
2013-01-13 10:35:00,75.3,74.1,30.18,WSW,253,0.0,2.0,96,0.00,CLR,,0.21,WeatherDisplay:10.37,2013-01-13 15:35:00,
2013-01-13 10:40:00,75.6,73.4,30.18,WSW,241,0.0,3.0,93,0.00,CLR,,0.21,WeatherDisplay:10.37,2013-01-13 15:40:00,
2013-01-13 10:45:00,75.7,73.2,30.19,WSW,252,0.0,3.0,92,0.00,CLR,,0.21,WeatherDisplay:10.37,2013-01-13 15:45:00,
2013-01-13 10:50:00,76.0,73.2,30.18,WSW,257,1.0,3.0,91,0.00,CLR,,0.21,WeatherDisplay:10.37,2013-01-13 15:50:00,
2013-01-13 10:55:00,76.3,72.8,30.17,WSW,257,1.0,3.0,89,0.00,CLR,,0.21,WeatherDisplay:10.37,2013-01-13 15:55:00,
2013-01-13 11:00:00,76.7,72.9,30.17,SW,224,1.0,5.0,88,0.00,CLR,,0.21,WeatherDisplay:10.37,2013-01-13 16:00:00,
2013-01-13 11:05:00,76.8,72.0,30.17,SW,226,0.0,5.0,85,0.00,CLR,,0.21,WeatherDisplay:10.37,2013-01-13 16:05:00,
2013-01-13 11:10:00,77.0,71.8,30.17,WSW,245,1.0,3.0,84,0.00,CLR,,0.21,WeatherDisplay:10.37,2013-01-13 16:10:00,
2013-01-13 11:15:00,76.7,71.2,30.16,WSW,243,0.0,5.0,83,0.00,CLR,,0.21,WeatherDisplay:10.37,2013-01-13 16:15:00,
2013-01-13 11:20:00,75.9,71.1,30.16,SW,224,0.0,2.0,85,0.00,CLR,,0.21,WeatherDisplay:10.37,2013-01-13 16:20:00,
2013-01-13 11:30:00,76.1,70.9,30.16,WSW,243,1.0,3.0,84,0.00,CLR,,0.21,WeatherDisplay:10.37,2013-01-13 16:30:00,
2013-01-13 11:35:00,76.5,70.6,30.16,West,262,0.0,3.0,82,0.00,CLR,,0.21,WeatherDisplay:10.37,2013-01-13 16:35:00,
2013-01-13 11:40:00,77.0,70.4,30.15,WSW,250,0.0,4.0,80,0.00,CLR,,0.21,WeatherDisplay:10.37,2013-01-13 16:40:00,
2013-01-13 11:45:00,77.2,70.5,30.15,WSW,257,0.0,3.0,80,0.00,CLR,,0.21,WeatherDisplay:10.37,2013-01-13 16:45:00,
2013-01-13 11:50:00,77.5,69.4,30.15,SW,222,1.0,8.0,76,0.00,CLR,,0.21,WeatherDisplay:10.37,2013-01-13 16:50:00,
2013-01-13 11:55:00,77.2,69.0,30.15,SW,227,0.0,8.0,76,0.00,CLR,,0.21,WeatherDisplay:10.37,2013-01-13 16:55:00,
2013-01-13 12:00:00,77.7,68.8,30.14,WSW,257,1.0,5.0,74,0.00,CLR,,0.21,WeatherDisplay:10.37,2013-01-13 17:00:00,
2013-01-13 12:05:00,78.2,68.8,30.14,SW,230,0.0,3.0,73,0.00,CLR,,0.21,WeatherDisplay:10.37,2013-01-13 17:05:00,
2013-01-13 12:10:00,78.8,68.6,30.14,SSW,211,1.0,6.0,71,0.00,CLR,,0.21,WeatherDisplay:10.37,2013-01-13 17:10:00,
2013-01-13 12:15:00,79.0,68.4,30.14,SW,225,0.0,9.0,70,0.00,CLR,,0.21,WeatherDisplay:10.37,2013-01-13 17:15:00,
2013-01-13 12:20:00,79.1,67.7,30.13,SW,215,1.0,8.0,68,0.00,CLR,,0.21,WeatherDisplay:10.37,2013-01-13 17:20:00,
2013-01-13 12:25:00,79.6,68.1,30.13,SSW,212,1.0,6.0,68,0.00,CLR,,0.21,WeatherDisplay:10.37,2013-01-13 17:25:00,
2013-01-13 12:30:00,79.7,67.3,30.13,WSW,243,0.0,6.0,66,0.00,CLR,,0.21,WeatherDisplay:10.37,2013-01-13 17:30:00,
2013-01-13 12:35:00,79.5,67.2,30.13,WSW,249,2.0,6.0,66,0.00,CLR,,0.21,WeatherDisplay:10.37,2013-01-13 17:35:00,
2013-01-13 12:40:00,78.8,67.3,30.13,WSW,250,1.0,6.0,68,0.00,CLR,,0.21,WeatherDisplay:10.37,2013-01-13 17:40:00,
2013-01-13 12:45:00,78.1,67.1,30.12,WSW,240,0.0,5.0,69,0.00,CLR,,0.21,WeatherDisplay:10.37,2013-01-13 17:45:00,
2013-01-13 12:50:00,78.1,67.1,30.12,SW,223,0.0,3.0,69,0.00,CLR,,0.21,WeatherDisplay:10.37,2013-01-13 17:50:00,
2013-01-13 12:55:00,77.4,67.6,30.11,SSW,193,0.0,3.0,72,0.00,CLR,,0.21,WeatherDisplay:10.37,2013-01-13 17:55:00,
2013-01-13 13:00:00,77.2,67.9,30.12,SSW,202,0.0,7.0,73,0.00,CLR,,0.21,WeatherDisplay:10.37,2013-01-13 18:00:00,
2013-01-13 13:05:00,77.5,68.2,30.12,SW,227,0.0,5.0,73,0.00,CLR,,0.21,WeatherDisplay:10.37,2013-01-13 18:05:00,
2013-01-13 13:10:00,78.3,68.1,30.11,SW,216,0.0,4.0,71,0.00,CLR,,0.21,WeatherDisplay:10.37,2013-01-13 18:10:00,
2013-01-13 13:15:00,78.1,67.5,30.11,SW,224,0.0,5.0,70,0.00,CLR,,0.21,WeatherDisplay:10.37,2013-01-13 18:15:00,
2013-01-13 13:20:00,77.4,67.3,30.11,SW,228,0.0,3.0,71,0.00,CLR,,0.21,WeatherDisplay:10.37,2013-01-13 18:20:00,
2013-01-13 13:25:00,76.9,67.2,30.11,SW,217,0.0,3.0,72,0.00,CLR,,0.21,WeatherDisplay:10.37,2013-01-13 18:25:00,
2013-01-13 13:30:00,76.6,67.3,30.11,SSW,208,1.0,3.0,73,0.00,CLR,,0.21,WeatherDisplay:10.37,2013-01-13 18:30:00,
2013-01-13 13:35:00,76.4,66.7,30.10,SSW,206,2.0,8.0,72,0.00,CLR,,0.21,WeatherDisplay:10.37,2013-01-13 18:35:00,
2013-01-13 13:40:00,76.0,65.9,30.11,SW,231,1.0,5.0,71,0.00,CLR,,0.21,WeatherDisplay:10.37,2013-01-13 18:40:00,
2013-01-13 13:45:00,76.0,66.7,30.11,SW,216,1.0,5.0,73,0.00,CLR,,0.21,WeatherDisplay:10.37,2013-01-13 18:45:00,
2013-01-13 13:50:00,76.7,67.0,30.10,SSW,208,0.0,3.0,72,0.00,CLR,,0.21,WeatherDisplay:10.37,2013-01-13 18:50:00,
2013-01-13 13:55:00,77.4,66.4,30.10,SSW,200,2.0,6.0,69,0.00,CLR,,0.21,WeatherDisplay:10.37,2013-01-13 18:55:00,
2013-01-13 14:00:00,77.7,67.2,30.10,South,170,0.0,6.0,70,0.00,CLR,,0.21,WeatherDisplay:10.37,2013-01-13 19:00:00,
2013-01-13 14:05:00,78.1,66.7,30.09,South,173,2.0,6.0,68,0.00,CLR,,0.21,WeatherDisplay:10.37,2013-01-13 19:05:00,
2013-01-13 14:15:00,77.4,66.4,30.09,West,276,0.0,4.0,69,0.00,CLR,,0.21,WeatherDisplay:10.37,2013-01-13 19:15:00,
2013-01-13 14:20:00,77.3,65.9,30.09,SW,231,1.0,4.0,68,0.00,CLR,,0.21,WeatherDisplay:10.37,2013-01-13 19:20:00,
2013-01-13 14:25:00,77.0,66.0,30.09,WSW,237,0.0,5.0,69,0.00,CLR,,0.21,WeatherDisplay:10.37,2013-01-13 19:25:00,
2013-01-13 14:30:00,77.0,66.5,30.09,SW,227,2.0,5.0,70,0.00,CLR,,0.21,WeatherDisplay:10.37,2013-01-13 19:30:00,
2013-01-13 14:35:00,77.2,67.0,30.10,SW,221,0.0,4.0,71,0.00,CLR,,0.21,WeatherDisplay:10.37,2013-01-13 19:35:00,
2013-01-13 14:40:00,77.0,66.9,30.10,SW,222,0.0,5.0,71,0.00,CLR,,0.21,WeatherDisplay:10.37,2013-01-13 19:40:00,
2013-01-13 14:45:00,77.0,66.9,30.10,SSW,193,2.0,5.0,71,0.00,CLR,,0.21,WeatherDisplay:10.37,2013-01-13 19:45:00,
2013-01-13 14:50:00,77.0,66.9,30.10,South,191,0.0,5.0,71,0.00,CLR,,0.21,WeatherDisplay:10.37,2013-01-13 19:50:00,
2013-01-13 14:55:00,77.0,67.3,30.10,SW,226,0.0,6.0,72,0.00,CLR,,0.21,WeatherDisplay:10.37,2013-01-13 19:55:00,
2013-01-13 15:00:00,76.6,67.3,30.10,SW,223,1.0,5.0,73,0.00,CLR,,0.21,WeatherDisplay:10.37,2013-01-13 20:00:00,
2013-01-13 15:05:00,76.1,68.0,30.10,SW,223,0.0,6.0,76,0.00,CLR,,0.21,WeatherDisplay:10.37,2013-01-13 20:05:00,
2013-01-13 15:10:00,75.7,68.0,30.10,SW,222,1.0,3.0,77,0.00,CLR,,0.21,WeatherDisplay:10.37,2013-01-13 20:10:00,
2013-01-13 15:15:00,75.4,68.0,30.11,South,189,1.0,4.0,78,0.00,CLR,,0.21,WeatherDisplay:10.37,2013-01-13 20:15:00,
2013-01-13 15:20:00,75.4,68.0,30.11,SSW,199,2.0,4.0,78,0.00,CLR,,0.21,WeatherDisplay:10.37,2013-01-13 20:20:00,
2013-01-13 15:25:00,75.2,68.2,30.11,SSW,203,1.0,7.0,79,0.00,CLR,,0.21,WeatherDisplay:10.37,2013-01-13 20:25:00,
2013-01-13 15:30:00,75.0,68.1,30.11,SSW,206,1.0,5.0,79,0.00,CLR,,0.21,WeatherDisplay:10.37,2013-01-13 20:30:00,
2013-01-13 15:35:00,75.0,68.1,30.11,SSW,205,1.0,6.0,79,0.00,CLR,,0.21,WeatherDisplay:10.37,2013-01-13 20:35:00,
2013-01-13 15:40:00,75.0,68.1,30.11,SSW,196,2.0,5.0,79,0.00,CLR,,0.21,WeatherDisplay:10.37,2013-01-13 20:40:00,
2013-01-13 15:45:00,75.0,68.1,30.11,South,191,1.0,5.0,79,0.00,CLR,,0.21,WeatherDisplay:10.37,2013-01-13 20:45:00,
2013-01-13 15:50:00,74.8,68.3,30.11,South,181,1.0,5.0,80,0.00,CLR,,0.21,WeatherDisplay:10.37,2013-01-13 20:50:00,
2013-01-13 15:55:00,74.8,67.9,30.12,SSW,196,1.0,4.0,79,0.00,CLR,,0.21,WeatherDisplay:10.37,2013-01-13 20:55:00,
2013-01-13 16:00:00,74.8,68.3,30.12,SW,215,1.0,4.0,80,0.00,CLR,,0.21,WeatherDisplay:10.37,2013-01-13 21:00:00,
2013-01-13 16:05:00,74.7,68.1,30.11,SW,222,1.0,5.0,80,0.00,CLR,,0.21,WeatherDisplay:10.37,2013-01-13 21:05:00,
2013-01-13 16:10:00,74.5,68.3,30.12,SSW,205,0.0,5.0,81,0.00,CLR,,0.21,WeatherDisplay:10.37,2013-01-13 21:10:00,
2013-01-13 16:15:00,74.5,67.9,30.12,SSW,200,2.0,5.0,80,0.00,CLR,,0.21,WeatherDisplay:10.37,2013-01-13 21:15:00,
2013-01-13 16:20:00,74.3,68.1,30.12,SSW,195,0.0,5.0,81,0.00,CLR,,0.21,WeatherDisplay:10.37,2013-01-13 21:20:00,
2013-01-13 16:30:00,73.9,67.7,30.12,SSW,193,1.0,4.0,81,0.00,CLR,,0.21,WeatherDisplay:10.37,2013-01-13 21:30:00,
2013-01-13 16:35:00,73.8,67.2,30.12,SSW,209,0.0,5.0,80,0.00,CLR,,0.21,WeatherDisplay:10.37,2013-01-13 21:35:00,
2013-01-13 16:40:00,73.4,67.2,30.12,SSW,213,1.0,4.0,81,0.00,CLR,,0.21,WeatherDisplay:10.37,2013-01-13 21:40:00,
2013-01-13 16:45:00,73.1,67.2,30.12,SSW,210,0.0,3.0,82,0.00,CLR,,0.21,WeatherDisplay:10.37,2013-01-13 21:45:00,
2013-01-13 16:50:00,72.7,67.6,30.13,SSW,206,0.0,2.0,84,0.00,CLR,,0.21,WeatherDisplay:10.37,2013-01-13 21:50:00,
2013-01-13 16:55:00,72.4,67.3,30.13,SSW,203,0.0,3.0,84,0.00,CLR,,0.21,WeatherDisplay:10.37,2013-01-13 21:55:00,
2013-01-13 17:00:00,72.0,67.2,30.12,SSW,192,0.0,4.0,85,0.00,CLR,,0.21,WeatherDisplay:10.37,2013-01-13 22:00:00,
2013-01-13 17:05:00,71.8,67.4,30.12,SSE,165,1.0,4.0,86,0.00,CLR,,0.21,WeatherDisplay:10.37,2013-01-13 22:05:00,
2013-01-13 17:10:00,71.2,67.5,30.13,SSE,166,1.0,4.0,88,0.00,CLR,,0.21,WeatherDisplay:10.37,2013-01-13 22:10:00,
2013-01-13 17:15:00,70.8,67.4,30.13,South,186,2.0,6.0,89,0.00,CLR,,0.21,WeatherDisplay:10.37,2013-01-13 22:15:00,
2013-01-13 17:20:00,70.2,67.1,30.13,SSW,207,1.0,3.0,90,0.00,CLR,,0.21,WeatherDisplay:10.37,2013-01-13 22:20:00,
2013-01-13 17:25:00,69.7,67.2,30.13,SW,215,0.0,2.0,92,0.00,CLR,,0.21,WeatherDisplay:10.37,2013-01-13 22:25:00,
2013-01-13 17:30:00,69.1,67.0,30.13,SSW,199,0.0,2.0,93,0.00,CLR,,0.21,WeatherDisplay:10.37,2013-01-13 22:30:00,
2013-01-13 17:35:00,68.5,67.1,30.14,SSW,198,0.0,3.0,95,0.00,CLR,,0.21,WeatherDisplay:10.37,2013-01-13 22:35:00,
2013-01-13 17:40:00,68.0,67.1,30.14,SW,216,0.0,2.0,97,0.00,CLR,,0.21,WeatherDisplay:10.37,2013-01-13 22:40:00,
2013-01-13 17:45:00,67.6,67.3,30.14,SSW,203,1.0,4.0,99,0.00,CLR,,0.21,WeatherDisplay:10.37,2013-01-13 22:45:00,
2013-01-13 17:50:00,67.5,67.2,30.13,South,189,0.0,2.0,99,0.00,CLR,,0.21,WeatherDisplay:10.37,2013-01-13 22:50:00,
2013-01-13 17:55:00,66.9,66.6,30.13,South,191,0.0,2.0,99,0.00,CLR,,0.21,WeatherDisplay:10.37,2013-01-13 22:55:00,
2013-01-13 18:00:00,66.4,66.1,30.14,South,191,0.0,2.0,99,0.00,CLR,,0.21,WeatherDisplay:10.37,2013-01-13 23:00:00,
2013-01-13 18:05:00,66.0,65.7,30.13,South,185,0.0,3.0,99,0.00,CLR,,0.21,WeatherDisplay:10.37,2013-01-13 23:05:00,
2013-01-13 18:10:00,65.7,65.4,30.13,South,188,0.0,3.0,99,0.00,CLR,,0.21,WeatherDisplay:10.37,2013-01-13 23:10:00,
2013-01-13 18:15:00,65.4,65.1,30.13,South,182,0.0,3.0,99,0.00,CLR,,0.21,WeatherDisplay:10.37,2013-01-13 23:15:00,
2013-01-13 18:20:00,65.1,64.8,30.13,South,182,1.0,2.0,99,0.00,CLR,,0.21,WeatherDisplay:10.37,2013-01-13 23:20:00,
2013-01-13 18:25:00,64.8,64.5,30.13,South,181,0.0,2.0,99,0.00,CLR,,0.21,WeatherDisplay:10.37,2013-01-13 23:25:00,
2013-01-13 18:30:00,64.6,64.3,30.13,South,186,1.0,4.0,99,0.00,CLR,,0.21,WeatherDisplay:10.37,2013-01-13 23:30:00,
2013-01-13 18:35:00,64.2,63.9,30.13,SSW,193,0.0,3.0,99,0.00,CLR,,0.21,WeatherDisplay:10.37,2013-01-13 23:35:00,
2013-01-13 18:40:00,64.0,63.8,30.13,SSW,201,1.0,3.0,99,0.00,CLR,,0.21,WeatherDisplay:10.37,2013-01-13 23:40:00,
2013-01-13 18:50:00,63.9,63.6,30.12,South,188,1.0,3.0,99,0.00,CLR,,0.21,WeatherDisplay:10.37,2013-01-13 23:50:00,
2013-01-13 18:55:00,63.5,63.2,30.12,South,188,1.0,3.0,99,0.00,CLR,,0.21,WeatherDisplay:10.37,2013-01-13 23:55:00,
2013-01-13 19:05:00,63.3,63.0,30.13,SSW,210,1.0,2.0,99,0.00,CLR,,0.21,WeatherDisplay:10.37,2013-01-14 00:05:00,
2013-01-13 19:10:00,63.1,62.9,30.13,SW,218,0.0,3.0,99,0.00,CLR,,0.21,WeatherDisplay:10.37,2013-01-14 00:10:00,
2013-01-13 19:20:00,62.8,62.5,30.13,SW,214,0.0,2.0,99,0.00,CLR,,0.21,WeatherDisplay:10.37,2013-01-14 00:20:00,
2013-01-13 19:25:00,62.6,62.3,30.13,SSW,206,0.0,2.0,99,0.00,CLR,,0.21,WeatherDisplay:10.37,2013-01-14 00:25:00,
2013-01-13 19:30:00,62.4,62.1,30.13,SSW,206,0.0,2.0,99,0.00,CLR,,0.21,WeatherDisplay:10.37,2013-01-14 00:30:00,
2013-01-13 19:35:00,62.2,62.0,30.13,SSW,193,0.0,2.0,99,0.00,CLR,,0.21,WeatherDisplay:10.37,2013-01-14 00:35:00,
2013-01-13 19:40:00,62.1,61.8,30.12,SSW,193,0.0,2.0,99,0.00,CLR,,0.21,WeatherDisplay:10.37,2013-01-14 00:40:00,
2013-01-13 19:45:00,61.9,61.6,30.12,SSW,202,0.0,2.0,99,0.00,CLR,,0.21,WeatherDisplay:10.37,2013-01-14 00:45:00,
2013-01-13 19:55:00,61.6,61.3,30.12,SSW,212,0.0,1.0,99,0.00,CLR,,0.21,WeatherDisplay:10.37,2013-01-14 00:55:00,
2013-01-13 20:00:00,61.4,61.1,30.12,SSW,194,0.0,1.0,99,0.00,CLR,,0.21,WeatherDisplay:10.37,2013-01-14 01:00:00,
2013-01-13 20:05:00,61.3,61.1,30.12,South,188,1.0,2.0,99,0.00,CLR,,0.21,WeatherDisplay:10.37,2013-01-14 01:05:00,
2013-01-13 20:10:00,61.2,60.9,30.12,South,175,0.0,2.0,99,0.00,CLR,,0.21,WeatherDisplay:10.37,2013-01-14 01:10:00,
2013-01-13 20:15:00,61.0,60.7,30.13,SSW,205,0.0,2.0,99,0.00,CLR,,0.21,WeatherDisplay:10.37,2013-01-14 01:15:00,
2013-01-13 20:20:00,61.0,60.7,30.12,SW,225,0.0,2.0,99,0.00,CLR,,0.21,WeatherDisplay:10.37,2013-01-14 01:20:00,
2013-01-13 20:25:00,61.0,60.7,30.12,SW,217,0.0,2.0,99,0.00,CLR,,0.21,WeatherDisplay:10.37,2013-01-14 01:25:00,
2013-01-13 20:30:00,61.0,60.7,30.12,SSW,210,0.0,2.0,99,0.00,CLR,,0.21,WeatherDisplay:10.37,2013-01-14 01:30:00,
2013-01-13 20:35:00,60.8,60.5,30.12,SW,221,0.0,1.0,99,0.00,CLR,,0.21,WeatherDisplay:10.37,2013-01-14 01:35:00,
2013-01-13 20:40:00,60.8,60.5,30.12,SSW,203,0.0,2.0,99,0.00,CLR,,0.21,WeatherDisplay:10.37,2013-01-14 01:40:00,
2013-01-13 20:45:00,60.9,60.6,30.12,South,176,0.0,2.0,99,0.00,CLR,,0.21,WeatherDisplay:10.37,2013-01-14 01:45:00,
2013-01-13 20:50:00,60.8,60.5,30.12,South,180,0.0,2.0,99,0.00,CLR,,0.21,WeatherDisplay:10.37,2013-01-14 01:50:00,
2013-01-13 20:55:00,60.8,60.5,30.12,South,188,0.0,1.0,99,0.00,CLR,,0.21,WeatherDisplay:10.37,2013-01-14 01:55:00,
2013-01-13 21:00:00,60.6,60.3,30.12,SSW,202,0.0,2.0,99,0.00,CLR,,0.21,WeatherDisplay:10.37,2013-01-14 02:00:00,
2013-01-13 21:05:00,60.6,60.3,30.11,SSW,198,0.0,1.0,99,0.00,CLR,,0.21,WeatherDisplay:10.37,2013-01-14 02:05:00,
2013-01-13 21:10:00,60.3,60.0,30.12,South,188,0.0,1.0,99,0.00,CLR,,0.21,WeatherDisplay:10.37,2013-01-14 02:10:00,
2013-01-13 21:15:00,60.3,60.0,30.12,South,188,0.0,2.0,99,0.00,CLR,,0.21,WeatherDisplay:10.37,2013-01-14 02:15:00,
2013-01-13 21:20:00,60.1,59.8,30.13,SSW,197,0.0,1.0,99,0.00,CLR,,0.21,WeatherDisplay:10.37,2013-01-14 02:20:00,
2013-01-13 21:25:00,60.1,59.8,30.13,SSW,198,0.0,2.0,99,0.00,CLR,,0.21,WeatherDisplay:10.37,2013-01-14 02:25:00,
2013-01-13 21:30:00,59.9,59.6,30.13,South,188,0.0,1.0,99,0.00,CLR,,0.21,WeatherDisplay:10.37,2013-01-14 02:30:00,
2013-01-13 21:35:00,59.9,59.6,30.13,South,188,0.0,1.0,99,0.00,CLR,,0.21,WeatherDisplay:10.37,2013-01-14 02:35:00,
2013-01-13 21:40:00,59.9,59.6,30.14,South,188,0.0,2.0,99,0.00,CLR,,0.21,WeatherDisplay:10.37,2013-01-14 02:40:00,
2013-01-13 21:45:00,59.7,59.4,30.14,SSW,192,0.0,2.0,99,0.00,CLR,,0.21,WeatherDisplay:10.37,2013-01-14 02:45:00,
2013-01-13 21:50:00,59.7,59.4,30.14,SSW,192,0.0,2.0,99,0.00,CLR,,0.21,WeatherDisplay:10.37,2013-01-14 02:50:00,
2013-01-13 21:55:00,59.7,59.4,30.14,South,188,0.0,2.0,99,0.00,CLR,,0.21,WeatherDisplay:10.37,2013-01-14 02:55:00,
2013-01-13 22:00:00,59.7,59.4,30.14,South,188,0.0,3.0,99,0.00,CLR,,0.21,WeatherDisplay:10.37,2013-01-14 03:00:00,
2013-01-13 22:05:00,59.7,59.4,30.14,South,188,0.0,2.0,99,0.00,CLR,,0.21,WeatherDisplay:10.37,2013-01-14 03:05:00,
2013-01-13 22:10:00,59.7,59.4,30.14,South,188,0.0,2.0,99,0.00,CLR,,0.21,WeatherDisplay:10.37,2013-01-14 03:10:00,
2013-01-13 22:15:00,59.7,59.4,30.15,South,184,0.0,2.0,99,0.00,CLR,,0.21,WeatherDisplay:10.37,2013-01-14 03:15:00,
2013-01-13 22:20:00,59.5,59.3,30.15,South,185,0.0,1.0,99,0.00,CLR,,0.21,WeatherDisplay:10.37,2013-01-14 03:20:00,
2013-01-13 22:25:00,59.5,59.3,30.15,South,188,0.0,1.0,99,0.00,CLR,,0.21,WeatherDisplay:10.37,2013-01-14 03:25:00,
2013-01-13 22:30:00,59.5,59.3,30.15,South,188,0.0,2.0,99,0.00,CLR,,0.21,WeatherDisplay:10.37,2013-01-14 03:30:00,
2013-01-13 22:35:00,59.5,59.3,30.15,South,188,1.0,2.0,99,0.00,CLR,,0.21,WeatherDisplay:10.37,2013-01-14 03:35:00,
2013-01-13 22:40:00,59.5,59.3,30.16,South,188,0.0,1.0,99,0.00,CLR,,0.21,WeatherDisplay:10.37,2013-01-14 03:40:00,
2013-01-13 22:45:00,59.5,59.3,30.16,South,188,0.0,2.0,99,0.00,CLR,,0.21,WeatherDisplay:10.37,2013-01-14 03:45:00,
2013-01-13 22:50:00,59.4,59.2,30.15,South,188,0.0,2.0,99,0.00,CLR,,0.21,WeatherDisplay:10.37,2013-01-14 03:50:00,
2013-01-13 22:55:00,59.4,59.1,30.16,South,188,0.0,2.0,99,0.00,CLR,,0.21,WeatherDisplay:10.37,2013-01-14 03:55:00,
2013-01-13 23:00:00,59.5,59.3,30.16,South,188,0.0,2.0,99,0.00,CLR,,0.21,WeatherDisplay:10.37,2013-01-14 04:00:00,
2013-01-13 23:05:00,59.5,59.3,30.16,South,188,0.0,2.0,99,0.00,CLR,,0.21,WeatherDisplay:10.37,2013-01-14 04:05:00,
2013-01-13 23:10:00,59.5,59.3,30.16,South,188,0.0,2.0,99,0.00,CLR,,0.21,WeatherDisplay:10.37,2013-01-14 04:10:00,
2013-01-13 23:15:00,59.5,59.3,30.16,South,188,0.0,2.0,99,0.00,CLR,,0.21,WeatherDisplay:10.37,2013-01-14 04:15:00,
2013-01-13 23:20:00,59.5,59.2,30.16,South,188,0.0,2.0,99,0.00,CLR,,0.21,WeatherDisplay:10.37,2013-01-14 04:20:00,
2013-01-13 23:25:00,59.5,59.2,30.16,South,188,0.0,1.0,99,0.00,CLR,,0.21,WeatherDisplay:10.37,2013-01-14 04:25:00,
2013-01-13 23:30:00,59.5,59.3,30.16,South,190,0.0,2.0,99,0.00,CLR,,0.21,WeatherDisplay:10.37,2013-01-14 04:30:00,
2013-01-13 23:35:00,59.5,59.3,30.16,South,189,0.0,2.0,99,0.00,CLR,,0.21,WeatherDisplay:10.37,2013-01-14 04:35:00,
2013-01-13 23:40:00,59.5,59.3,30.16,South,188,0.0,2.0,99,0.00,CLR,,0.21,WeatherDisplay:10.37,2013-01-14 04:40:00,
2013-01-13 23:45:00,59.5,59.3,30.16,South,188,0.0,2.0,99,0.00,CLR,,0.21,WeatherDisplay:10.37,2013-01-14 04:45:00,
2013-01-13 23:50:00,59.4,59.1,30.16,South,188,0.0,2.0,99,0.00,CLR,,0.21,WeatherDisplay:10.37,2013-01-14 04:50:00,
2013-01-13 23:55:00,59.4,59.1,30.16,South,188,0.0,1.0,99,0.00,CLR,,0.21,WeatherDisplay:10.37,2013-01-14 04:55:00,